Home > Weather > Delbrück > Past weeks

Flag for Germany Past Weather in Delbrück, North Rhine-Westphalia, Germany — Yesterday and Last 2 Weeks

Now
59 °F

Clear.


Feels Like: 59 °F
Forecast: 60 / 69 °F
Wind: 5 mph from South

Location: Paderborn / Lippstadt

Current Time: May 31, 2016 at 2:19:22 AM

Latest Report: May 31, 2016 at 1:50 AM


Visibility: 10 mi

Pressure: 29.71 "Hg

Humidity: 100%

Dew Point: 59 °F

Location of DelbrückLocation

Past Weather in Delbrück — Graph

°F

Delbrück Temperature Yesterday

Maximum temperature yesterday: 72 °F (at 4:50 PM)
Minimum temperature yesterday: 59 °F (at 1:20 AM)
Average temperature yesterday: 64 °F

High & Low Weather Summary for the Past Weeks

 TemperatureHumidityPressure
High79 °F (May 22, 1:50 PM)100% (May 16, 4:20 AM)30.09 "Hg (May 16, 4:20 AM)
Low37 °F (May 16, 4:20 AM)34% (May 18, 3:20 PM)29.59 "Hg (May 30, 10:50 AM)
Average58 °F79%29.91 "Hg
* Reported May 16 12:20 AM — May 31 12:50 AM, Delbrück, Weather by CustomWeather, © 2016

Note: Actual official high and low records may vary slightly from our data, if they occured in-between our weather recording intervals... More about our weather records

Advertising

Delbrück Weather History for the Previous 24 Hours

Scroll right to see more
 ConditionsComfort  
Time TempWeatherWind HumidityBarometerVisibility
12:50 AM
Tue, May 31
59 °FClear.2 mph100%29.71 "Hg10 mi
12:20 AM59 °FPassing clouds.3 mph94%29.71 "HgN/A
11:50 PM
Mon, May 30
59 °FPassing clouds.5 mph100%29.71 "HgN/A
11:20 PM61 °FClear.6 mph100%29.68 "Hg10 mi
10:50 PM63 °FClear.8 mph94%29.68 "Hg10 mi
10:20 PM63 °FPassing clouds.5 mph94%29.68 "HgN/A
9:50 PM63 °FScattered clouds.9 mph88%29.68 "HgN/A
9:20 PM64 °FScattered clouds.9 mph78%29.65 "HgN/A
8:50 PM66 °FScattered clouds.6 mph83%29.65 "HgN/A
8:20 PM66 °FSunny.8 mph78%29.65 "Hg10 mi
7:50 PM68 °FSunny.9 mph69%29.62 "Hg10 mi
7:20 PM68 °FPassing clouds.7 mph73%29.62 "HgN/A
6:50 PM70 °FPassing clouds.8 mph64%29.62 "HgN/A
6:20 PM70 °FPassing clouds.12 mph69%29.62 "HgN/A
5:50 PM70 °FPassing clouds.12 mph73%29.62 "HgN/A
5:20 PM70 °FScattered clouds.12 mph73%29.59 "HgN/A
4:50 PM72 °FScattered clouds.8 mph78%29.59 "HgN/A
4:20 PM68 °FScattered clouds.7 mph100%29.62 "HgN/A
3:50 PM70 °FScattered clouds.12 mph88%29.62 "HgN/A
3:20 PM70 °FThundershowers. Broken clouds.8 mph100%29.62 "HgN/A
2:50 PM70 °FThundershowers. Broken clouds.9 mph94%29.62 "Hg4 mi
2:20 PM64 °FThunderstorms. Fog.8 mph100%29.62 "Hg2 mi
1:50 PM66 °FLight rain. Fog.3 mph100%29.62 "Hg3 mi
12:50 PM68 °FFog.8 mph94%29.62 "Hg3 mi
12:20 PM66 °FFog.6 mph100%29.62 "Hg3 mi
11:50 AM64 °FFog.5 mph100%29.59 "Hg3 mi
10:50 AM63 °FThundershowers. Fog.3 mph100%29.59 "Hg2 mi
10:20 AM63 °FFog.2 mph100%29.62 "Hg1 mi
9:50 AM63 °FFog.3 mph100%29.62 "Hg1 mi
9:20 AM61 °FFog.3 mph100%29.62 "Hg1 mi
8:50 AM61 °FFog.5 mph100%29.62 "Hg1 mi
8:20 AM61 °FFog.5 mph100%29.62 "Hg1 mi
7:50 AM61 °FFog.3 mph100%29.62 "Hg0 mi
7:20 AM61 °FFog.6 mph100%29.62 "Hg0 mi
6:50 AM61 °FFog.6 mph100%29.62 "Hg0 mi
6:20 AM61 °FFog.5 mph100%29.62 "Hg0 mi
5:50 AM61 °FFog.3 mph100%29.62 "Hg0 mi
5:20 AM61 °FFog.3 mph100%29.62 "Hg1 mi
4:50 AM61 °FFog.3 mph100%29.65 "Hg1 mi
4:20 AM61 °FThunderstorms. Fog.3 mph100%29.65 "Hg1 mi
3:50 AM61 °FThundershowers. Fog.3 mph100%29.65 "Hg1 mi
3:20 AM61 °FFog.3 mph100%29.65 "Hg1 mi
2:50 AM61 °FFog.2 mph100%29.68 "Hg1 mi
2:20 AM59 °FThundershowers. Fog.2 mph100%29.68 "Hg1 mi
Weather by CustomWeather, © 2016

See weather overviewHow to use our weather pages